COSMOS 2251 DEB, 35580

Orbit data source: Space-Track

COSMOS 2251 DEB, 35580 is space debris in LEO originally from a launch on Wed, 16 Jun 1993 UTC launched from the Plesetsk Missile And Space Complex (PKMTR). The debris from Iridium 33, an American commercial communications satellite, has been tracked extensively since its accidental collision with the defunct Russian satellite Cosmos 2251 in 2009. This event, occurring at high speed in low Earth orbit (LEO), generated thousands of pieces of space debris, significantly increasing the risk of further collisions. The Iridium 33 debris cloud has impacted space traffic management and orbital debris mitigation strategies, making it a subject of ongoing study in space situational awareness.

Loading next visibility...
Identifier
35580, 1993-036ALX
Orbit
LEO
Country
Flag of CISCIS
Related business
Manufacturer
Unknown
Mission
Spacecraft
Bus & Motor
Unknown
Mass
Unknown
Launch date (UTC)
1993-06-16 (33 years ago)
Launch vehicle
Unknown
Launch site
Plesetsk Missile And Space Complex (PKMTR)
Object type
Payload
Rocket body
Debris
Shape & HBR
Unknown shape, 0.1 m
Radar Cross Section
Small (<0.1 m²)

Expand to show TLE details & history
Last TLE update: 1 day ago

TLE from 1 day ago
0 COSMOS 2251 DEB
1 35580U 93036ALX 25351.75457343  .00002442  00000-0  16373-2 0  9990
2 35580  73.9009 170.1954 0281033 174.4390 185.9973 13.83894964623269
Epoch: 2025-12-17T18:06Z
TLE epoch observation values (Epoch: 2025-12-17T18:06:35.144Z)
Latitude
-0.00005°
Longitude
171.92906°
Altitude
1,157.561 km
Speed
7.172 km/s
True Right ascension
11h 20m 46s
True Declination
0° 00' 00"
Sunlit
Object was in daylight at epoch
Visualization orbit readout
Latitude
Unknown
Longitude
Unknown
Altitude
Unknown
Speed
Unknown
Apparent Right ascension
Unknown
Apparent Declination
Unknown
Sunlit
N/A
Visualization observer readout
Local Sidereal Time
19:13:17
Azimuth
Unknown
Elevation
Unknown
Doppler factor
Unknown
Orbital elements
Apogee altitude
1,153.678 km
Perigee altitude
741.912 km
Semi-major axis
7,325.932 km
Eccentricity
0.0281
Inclination
73.9009°
RAAN
170.1954°
Arg. of periapsis
174.439°
True anomaly
185.6722°
Mean anomaly
185.9973°
Eccentric anomaly
185.83364°
Mean motion
3.46138 °/min
Orbital period
104 mins
BSTAR
0.0016373
Loading maneuver chart data...
Computing Atmospheric mass density...

Documentation

Showing up to 5 results
|